Location: Aghk�ilisa
(40.0189°N, 45.0097°E)
Time: 08:34:46
(UTC+00:00)

Ariane Rocket - Pass Details

Date: 21 October 2019
Orbit: 760 x 770 km, 98.8° (Epoch: 11 November)

Event Time Altitude Azimuth Distance (km) Brightness Sun altitude
Exits shadow 15:55:30 14° 157° (SSE) 2,046 4.9 -20.4°
Maximum altitude 15:59:54 72° 74° (ENE) 809 2.9 -21.3°
Drops below altitude 10° 16:05:00 10° 351° (N) 2,321 5.6 -22.2°
Sets 16:07:19 0° 349° (N) 3,252 6.5 -22.7°
